• In Portugal
  • List of Countries
  • For 7 days
  • Water Temperature
  • Satellite Maps
  • Weather Map
  • Weather Widgets
  • user-avatar
    Login

    Hourly Weather Poswietne

    Today, 23 October, Tuesday

    Time Temperature Precipitation Wind Pressure Humidity
    00:00 +5°C° 0 mm 2 mps 755 mmHg 87%
    01:00 +4°C° 0 mm 2 mps 754 mmHg 91%
    02:00 +3°C° 0 mm 3 mps 754 mmHg 89%
    03:00 +4°C° 0 mm 3 mps 753 mmHg 88%
    04:00 +4°C° 0 mm 4 mps 752 mmHg 87%
    05:00 +3°C° 0 mm 5 mps 752 mmHg 84%
    06:00 +3°C° 0 mm 5 mps 751 mmHg 82%
    07:00 +4°C° 0 mm 6 mps 750 mmHg 79%
    08:00 +5°C° 0.1 mm 7 mps 749 mmHg 76%
    09:00 +5°C° 0.1 mm 8 mps 748 mmHg 73%
    10:00 +6°C° 0.1 mm 9 mps 747 mmHg 70%
    11:00 +6°C° 0.8 mm 9 mps 746 mmHg 73%
    12:00 +6°C° 0.8 mm 9 mps 745 mmHg 76%
    13:00 +6°C° 0.8 mm 9 mps 744 mmHg 79%
    14:00 +7°C° 0.4 mm 9 mps 743 mmHg 80%
    15:00 +7°C° 0.4 mm 10 mps 742 mmHg 81%
    16:00 +8°C° 0.4 mm 10 mps 742 mmHg 82%
    17:00 +8°C° 0.9 mm 10 mps 741 mmHg 83%
    18:00 +9°C° 0.9 mm 10 mps 740 mmHg 83%
    19:00 +9°C° 0.9 mm 10 mps 740 mmHg 84%
    20:00 +11°C° 1.1 mm 10 mps 740 mmHg 84%
    21:00 +11°C° 1.1 mm 10 mps 739 mmHg 84%
    22:00 +11°C° 1.1 mm 10 mps 739 mmHg 84%
    23:00 +11°C° 1.3 mm 10 mps 739 mmHg 83%

    Tomorrow, 24 October, Wednesday

    Time Temperature Precipitation Wind Pressure Humidity
    00:00 +11°C° 1.3 mm 10 mps 739 mmHg 82%
    01:00 +9°C° 1.3 mm 10 mps 738 mmHg 81%
    02:00 +10°C° 0.4 mm 9 mps 739 mmHg 78%
    03:00 +8°C° 0.4 mm 9 mps 739 mmHg 76%
    04:00 +7°C° 0.4 mm 9 mps 739 mmHg 74%
    05:00 +6°C° 0.1 mm 9 mps 740 mmHg 74%
    06:00 +6°C° 0.1 mm 8 mps 740 mmHg 74%
    07:00 +5°C° 0.1 mm 7 mps 741 mmHg 74%
    08:00 +6°C° 0.1 mm 8 mps 742 mmHg 70%
    09:00 +6°C° 0.1 mm 8 mps 742 mmHg 66%
    10:00 +6°C° 0.1 mm 8 mps 743 mmHg 62%
    11:00 +6°C° 0.1 mm 8 mps 743 mmHg 59%
    12:00 +7°C° 0.1 mm 8 mps 744 mmHg 56%
    13:00 +7°C° 0.1 mm 8 mps 744 mmHg 53%
    14:00 +8°C° 0 mm 7 mps 745 mmHg 54%
    15:00 +8°C° 0 mm 6 mps 745 mmHg 55%
    16:00 +7°C° 0 mm 6 mps 746 mmHg 55%
    17:00 +7°C° 0 mm 5 mps 746 mmHg 59%
    18:00 +6°C° 0 mm 5 mps 747 mmHg 62%
    19:00 +5°C° 0 mm 4 mps 747 mmHg 65%
    20:00 +5°C° 0 mm 4 mps 747 mmHg 68%
    21:00 +5°C° 0 mm 4 mps 747 mmHg 70%
    22:00 +4°C° 0 mm 3 mps 748 mmHg 73%
    23:00 +4°C° 0 mm 4 mps 747 mmHg 76%

    Day after tomorrow, 25 October, Thursday

    Time Temperature Precipitation Wind Pressure Humidity
    00:00 +5°C° 0 mm 4 mps 747 mmHg 78%
    01:00 +5°C° 0 mm 4 mps 746 mmHg 80%
    02:00 +6°C° 0.4 mm 4 mps 746 mmHg 84%
    03:00 +7°C° 0.4 mm 5 mps 745 mmHg 87%
    04:00 +8°C° 0.4 mm 5 mps 744 mmHg 90%
    05:00 +9°C° 0.3 mm 6 mps 744 mmHg 89%
    06:00 +9°C° 0.3 mm 7 mps 744 mmHg 88%
    07:00 +10°C° 0.3 mm 7 mps 743 mmHg 86%
    08:00 +10°C° 0.2 mm 8 mps 743 mmHg 85%
    09:00 +10°C° 0.2 mm 8 mps 743 mmHg 84%
    10:00 +10°C° 0.2 mm 8 mps 743 mmHg 83%
    11:00 +10°C° 0.1 mm 8 mps 743 mmHg 82%
    12:00 +11°C° 0.1 mm 8 mps 743 mmHg 80%
    13:00 +11°C° 0.1 mm 8 mps 743 mmHg 79%
    14:00 +11°C° 0 mm 8 mps 742 mmHg 78%
    15:00 +11°C° 0 mm 7 mps 742 mmHg 78%
    16:00 +11°C° 0 mm 7 mps 742 mmHg 78%
    17:00 +11°C° 0.1 mm 7 mps 742 mmHg 79%
    18:00 +10°C° 0.1 mm 7 mps 743 mmHg 81%
    19:00 +10°C° 0.1 mm 6 mps 743 mmHg 82%
    20:00 +10°C° 0.2 mm 6 mps 743 mmHg 83%
    21:00 +9°C° 0.2 mm 5 mps 743 mmHg 83%
    22:00 +9°C° 0.2 mm 5 mps 744 mmHg 83%
    23:00 +8°C° 0.1 mm 5 mps 744 mmHg 84%

    26 October, Friday

    Time Temperature Precipitation Wind Pressure Humidity
    00:00 +8°C° 0.1 mm 4 mps 744 mmHg 85%
    01:00 +8°C° 0.1 mm 3 mps 744 mmHg 86%
    02:00 +8°C° 0.1 mm 3 mps 744 mmHg 87%
    03:00 +9°C° 0.1 mm 3 mps 743 mmHg 88%
    04:00 +9°C° 0.1 mm 3 mps 743 mmHg 88%
    05:00 +8°C° 0 mm 3 mps 743 mmHg 90%
    06:00 +8°C° 0 mm 3 mps 743 mmHg 91%
    07:00 +8°C° 0 mm 3 mps 743 mmHg 93%
    08:00 +9°C° 0 mm 3 mps 743 mmHg 88%
    09:00 +10°C° 0 mm 4 mps 742 mmHg 84%
    10:00 +11°C° 0 mm 4 mps 742 mmHg 79%
    11:00 +12°C° 0 mm 4 mps 742 mmHg 75%
    12:00 +13°C° 0 mm 4 mps 741 mmHg 71%
    13:00 +13°C° 0 mm 5 mps 741 mmHg 67%
    14:00 +13°C° 0 mm 4 mps 740 mmHg 68%
    15:00 +12°C° 0 mm 4 mps 740 mmHg 69%
    16:00 +12°C° 0 mm 4 mps 739 mmHg 70%
    17:00 +11°C° 0 mm 4 mps 739 mmHg 72%
    18:00 +10°C° 0 mm 4 mps 739 mmHg 74%
    19:00 +8°C° 0 mm 4 mps 739 mmHg 75%
    20:00 +8°C° 0 mm 4 mps 739 mmHg 76%
    21:00 +8°C° 0 mm 4 mps 739 mmHg 77%
    22:00 +7°C° 0 mm 4 mps 739 mmHg 77%
    23:00 +7°C° 0 mm 4 mps 739 mmHg 78%

    27 October, Saturday

    Time Temperature Precipitation Wind Pressure Humidity
    00:00 +7°C° 0 mm 4 mps 738 mmHg 78%
    01:00 +7°C° 0 mm 4 mps 738 mmHg 79%
    02:00 +7°C° 0.1 mm 4 mps 738 mmHg 80%
    03:00 +7°C° 0.1 mm 4 mps 738 mmHg 81%
    04:00 +7°C° 0.1 mm 4 mps 738 mmHg 82%
    05:00 +7°C° 0.1 mm 4 mps 738 mmHg 81%
    06:00 +6°C° 0.1 mm 4 mps 738 mmHg 81%
    07:00 +6°C° 0.1 mm 4 mps 739 mmHg 80%
    08:00 +6°C° 0 mm 4 mps 739 mmHg 76%
    09:00 +7°C° 0 mm 5 mps 739 mmHg 73%
    10:00 +7°C° 0 mm 5 mps 740 mmHg 69%
    11:00 +7°C° 0 mm 5 mps 740 mmHg 66%
    12:00 +8°C° 0 mm 4 mps 740 mmHg 62%
    13:00 +8°C° 0 mm 4 mps 740 mmHg 59%
    14:00 +9°C° 0 mm 3 mps 740 mmHg 61%
    15:00 +8°C° 0 mm 3 mps 740 mmHg 62%
    16:00 +8°C° 0 mm 2 mps 741 mmHg 64%
    17:00 +7°C° 0 mm 2 mps 741 mmHg 67%
    18:00 +8°C° 0 mm 1 mps 741 mmHg 69%
    19:00 +7°C° 0 mm 1 mps 741 mmHg 72%
    20:00 +7°C° 0 mm 1 mps 742 mmHg 73%
    21:00 +7°C° 0 mm 1 mps 742 mmHg 74%
    22:00 +7°C° 0 mm 1 mps 742 mmHg 74%
    23:00 +6°C° 0 mm 1 mps 742 mmHg 75%

    28 October, Sunday

    Time Temperature Precipitation Wind Pressure Humidity
    00:00 +6°C° 0 mm 1 mps 742 mmHg 76%
    01:00 +6°C° 0 mm 1 mps 742 mmHg 77%
    02:00 +6°C° 0 mm 1 mps 742 mmHg 79%
    03:00 +6°C° 0 mm 1 mps 742 mmHg 80%
    04:00 +5°C° 0 mm 2 mps 741 mmHg 81%
    05:00 +4°C° 0.1 mm 2 mps 741 mmHg 83%
    06:00 +4°C° 0.1 mm 2 mps 741 mmHg 84%
    07:00 +4°C° 0.1 mm 2 mps 741 mmHg 85%
    08:00 +4°C° 0.1 mm 2 mps 741 mmHg 84%
    09:00 +4°C° 0.1 mm 3 mps 741 mmHg 82%
    10:00 +4°C° 0.1 mm 3 mps 741 mmHg 81%
    11:00 +5°C° 0.1 mm 3 mps 741 mmHg 79%
    12:00 +5°C° 0.1 mm 4 mps 741 mmHg 78%
    13:00 +5°C° 0.1 mm 4 mps 741 mmHg 76%
    14:00 +5°C° 0.6 mm 4 mps 741 mmHg 78%
    15:00 +4°C° 0.6 mm 4 mps 740 mmHg 80%
    16:00 +4°C° 0.6 mm 4 mps 740 mmHg 82%
    17:00 +4°C° 0.4 mm 4 mps 740 mmHg 83%
    18:00 +3°C° 0.4 mm 5 mps 740 mmHg 84%
    19:00 +3°C° 0.4 mm 5 mps 740 mmHg 85%
    20:00 +2°C° 0.5 mm 6 mps 739 mmHg 85%
    21:00 +2°C° 0.5 mm 6 mps 739 mmHg 85%
    22:00 +2°C° 0.5 mm 6 mps 739 mmHg 86%
    23:00 +2°C° 0.9 mm 6 mps 738 mmHg 86%

    29 October, Monday

    Time Temperature Precipitation Wind Pressure Humidity
    00:00 +2°C° 0.9 mm 6 mps 738 mmHg 86%
    01:00 +1°C° 0.9 mm 6 mps 737 mmHg 86%
    02:00 +1°C° 0.8 mm 6 mps 737 mmHg 86%
    03:00 +1°C° 0.8 mm 6 mps 736 mmHg 87%
    04:00 +1°C° 0.8 mm 6 mps 736 mmHg 87%
    05:00 -1°C° 0.5 mm 6 mps 735 mmHg 88%
    06:00 -1°C° 0.5 mm 6 mps 735 mmHg 89%
    07:00 -1°C° 0.5 mm 6 mps 734 mmHg 89%
    08:00 0°C° 0.6 mm 5 mps 734 mmHg 90%
    09:00 0°C° 0.6 mm 5 mps 734 mmHg 90%
    10:00 0°C° 0.6 mm 5 mps 734 mmHg 91%
    11:00 0°C° 0.5 mm 4 mps 733 mmHg 92%
    12:00 0°C° 0.5 mm 4 mps 733 mmHg 92%
    13:00 0°C° 0.5 mm 4 mps 733 mmHg 93%
    14:00 +1°C° 0.1 mm 3 mps 732 mmHg 93%
    15:00 +1°C° 0.1 mm 3 mps 732 mmHg 94%
    16:00 +1°C° 0.1 mm 3 mps 732 mmHg 94%
    17:00 +2°C° 0.1 mm 2 mps 732 mmHg 95%
    18:00 +2°C° 0.1 mm 2 mps 732 mmHg 95%
    19:00 +2°C° 0.1 mm 2 mps 732 mmHg 96%
    20:00 +2°C° 0.5 mm 2 mps 731 mmHg 96%
    21:00 +2°C° 0.5 mm 2 mps 731 mmHg 96%
    22:00 +2°C° 0.5 mm 2 mps 731 mmHg 97%
    23:00 +2°C° 0.8 mm 2 mps 731 mmHg 97%
    Show more